Simultaneous Nadir Overpasses (SNOs) Predictions

Prediction of SNOs between LANDSAT-8 and NOAA-19 Satellite Orbit:

Table of predicted SNOs for the next 14.0 days since TLE Epoch: 7/13/2024
Index Date (LANDSAT-8) Time (LANDSAT-8) Lat,Lon (LANDSAT-8) SZA (LANDSAT-8 ) Date (NOAA-19) Time (NOAA-19) Lat,Lon (NOAA-19) SZA (NOAA-19 ) Distance(km) Time Diff (sec)
1 07/13/2024 15:51:45 80.64, -24.29 60.45 07/13/2024 15:50:40 80.64, -24.14 60.44 2.87 65
2 07/13/2024 16:41:11 -80.66, 143.63 119.50 07/13/2024 16:41:33 -80.66, 143.73 119.48 1.95 22
3 07/15/2024 23:04:26 -80.63, 47.44 119.21 07/15/2024 23:04:26 -80.63, 47.27 119.23 3.03 0
4 07/18/2024 05:27:39 -80.63, -48.31 118.82 07/18/2024 05:27:16 -80.63, -48.21 118.82 1.74 23
5 07/18/2024 06:17:03 80.70, 120.07 61.31 07/18/2024 06:18:17 80.68, 119.96 61.31 2.98 74
6
